Погода в Тасосе

Греция     40°46′47″N   24°42′46″E
темп.,
°C
ветер,
м/с
пор.,
м/с
влажн.,
%
обл.,
%
осадки,
мм/ч
давл.,
гПа
погр.,
м
18 января, пн
пн1823:000св556697 0.3 1019878
02:00+1всв556386 0.3 1019981
05:00+1всв656192 0.0 10211041
08:00+1всв546085 0.0 1022955
11:00+1всв435838 0.0 1023962
14:00+2всв125148 0.0 10221035
17:00+2вюв114622 0.0 1023964
20:00+2юв114811 0.0 1023814
19 января, вт
вт1923:00+2всв12520 0.0 1025679
02:00+2ссв225714 0.0 1024719
05:00+2ссв336328 0.0 1024526
08:00+2ссв446264 0.0 1025546
11:00+2св447099 0.0 1026627
14:00+3всв126798 0.2 1024698
17:00+4ююв126156 0.0 1025766
20:00+4юз015928 0.0 1026595
20 января, ср
ср2023:00+3ссв11650 0.0 1027386
02:00+3ссв11660 0.0 1026279
05:00+3ссв11630 0.0 1025272
08:00+4зсз11610 0.0 1026311
11:00+5з125511 0.0 1027394
14:00+7зюз24476 0.0 1026699
17:00+8зюз34481 0.0 1025624
20:00+8з33541 0.0 1026432
21 января, чт
чт2123:00+7сз12580 0.0 1026234
02:00+6зсз126140 0.0 1025206
05:00+6зсз2260100 0.0 1024238
08:00+6зсз2255100 0.0 1025221
11:00+8з224918 0.0 1025320
14:00+10зюз24499 0.0 1023548
17:00+10з23550 0.0 1023426
20:00+10з226028 0.0 1023279
22 января, пт
пт2223:00+9сз12662 0.0 1023109
02:00+9зсз227046 0.0 1022154
05:00+9з2272100 0.0 1021156
08:00+9зсз1174100 0.0 1021121
11:00+10св017190 0.0 1020180
14:00+11ююв127255 0.0 1018282
17:00+12зюз01770 0.0 101790
20:00+11с017916 0.0 101797